TimeEST,TemperatureF,Dew PointF,Humidity,Sea Level PressureIn,VisibilityMPH,Wind Direction,Wind SpeedMPH,Gust SpeedMPH,PrecipitationIn,Events,Conditions,WindDirDegrees,DateUTC
12:15 AM,59.0,57.2,94,30.20,10.0,NE,3.5,-,N/A,,Scattered Clouds,40,2013-02-10 05:15:00
12:35 AM,59.0,57.2,94,30.20,10.0,ENE,3.5,-,N/A,,Scattered Clouds,60,2013-02-10 05:35:00
12:55 AM,59.0,57.2,94,30.20,10.0,NE,3.5,-,N/A,,Scattered Clouds,40,2013-02-10 05:55:00
1:15 AM,59.0,57.2,94,30.20,10.0,NE,3.5,-,N/A,,Scattered Clouds,50,2013-02-10 06:15:00
1:35 AM,59.0,57.2,94,30.20,10.0,Calm,Calm,-,N/A,,Scattered Clouds,0,2013-02-10 06:35:00
1:55 AM,55.4,55.4,100,30.20,10.0,Calm,Calm,-,N/A,,Scattered Clouds,0,2013-02-10 06:55:00
2:15 AM,57.2,55.4,94,30.20,10.0,Calm,Calm,-,N/A,,Scattered Clouds,0,2013-02-10 07:15:00
2:35 AM,59.0,57.2,94,30.20,10.0,NNE,3.5,-,N/A,,Mostly Cloudy,30,2013-02-10 07:35:00
2:55 AM,59.0,57.2,94,30.19,10.0,NE,4.6,-,N/A,,Scattered Clouds,40,2013-02-10 07:55:00
3:15 AM,59.0,57.2,94,30.19,10.0,ENE,4.6,-,N/A,,Clear,70,2013-02-10 08:15:00
3:35 AM,59.0,57.2,94,30.19,10.0,ENE,3.5,-,N/A,,Clear,60,2013-02-10 08:35:00
3:55 AM,59.0,57.2,94,30.18,10.0,ENE,3.5,-,N/A,,Clear,60,2013-02-10 08:55:00
4:15 AM,59.0,57.2,94,30.18,10.0,ENE,3.5,-,N/A,,Clear,60,2013-02-10 09:15:00
4:35 AM,59.0,57.2,94,30.18,10.0,ENE,4.6,-,N/A,,Clear,60,2013-02-10 09:35:00
4:55 AM,59.0,57.2,94,30.19,10.0,NE,3.5,-,N/A,,Clear,50,2013-02-10 09:55:00
5:15 AM,59.0,57.2,94,30.20,10.0,NE,3.5,-,N/A,,Clear,40,2013-02-10 10:15:00
5:35 AM,59.0,55.4,88,30.20,10.0,Calm,Calm,-,N/A,,Scattered Clouds,0,2013-02-10 10:35:00
5:55 AM,57.2,55.4,94,30.20,10.0,NNE,3.5,-,N/A,,Scattered Clouds,30,2013-02-10 10:55:00
6:15 AM,57.2,55.4,94,30.20,10.0,NE,4.6,-,N/A,,Clear,40,2013-02-10 11:15:00
6:35 AM,59.0,55.4,88,30.21,10.0,NE,3.5,-,N/A,,Clear,50,2013-02-10 11:35:00
6:55 AM,59.0,55.4,88,30.22,10.0,Calm,Calm,-,N/A,,Clear,0,2013-02-10 11:55:00
7:15 AM,57.2,55.4,94,30.22,10.0,Calm,Calm,-,N/A,,Scattered Clouds,0,2013-02-10 12:15:00
7:35 AM,57.2,55.4,94,30.22,10.0,NE,3.5,-,N/A,,Scattered Clouds,50,2013-02-10 12:35:00
7:55 AM,59.0,57.2,94,30.23,10.0,Calm,Calm,-,N/A,,Clear,0,2013-02-10 12:55:00
8:15 AM,62.6,59.0,88,30.24,10.0,NE,3.5,-,N/A,,Clear,50,2013-02-10 13:15:00
8:35 AM,64.4,60.8,88,30.24,10.0,ENE,4.6,-,N/A,,Clear,70,2013-02-10 13:35:00
8:55 AM,68.0,60.8,78,30.25,10.0,East,3.5,-,N/A,,Clear,80,2013-02-10 13:55:00
9:15 AM,69.8,60.8,73,30.26,10.0,East,5.8,-,N/A,,Clear,90,2013-02-10 14:15:00
9:35 AM,71.6,60.8,69,30.27,10.0,East,5.8,-,N/A,,Clear,90,2013-02-10 14:35:00
9:55 AM,73.4,60.8,65,30.27,10.0,ESE,11.5,-,N/A,,Scattered Clouds,110,2013-02-10 14:55:00
10:15 AM,73.4,60.8,65,30.28,10.0,East,9.2,-,N/A,,Scattered Clouds,100,2013-02-10 15:15:00
10:35 AM,73.4,59.0,61,30.28,10.0,East,10.4,-,N/A,,Mostly Cloudy,100,2013-02-10 15:35:00
10:55 AM,75.2,59.0,57,30.28,10.0,East,9.2,-,N/A,,Overcast,100,2013-02-10 15:55:00
11:15 AM,77.0,60.8,57,30.28,10.0,East,11.5,-,N/A,,Overcast,100,2013-02-10 16:15:00
11:35 AM,77.0,59.0,54,30.27,10.0,East,8.1,-,N/A,,Mostly Cloudy,90,2013-02-10 16:35:00
11:55 AM,77.0,59.0,54,30.27,10.0,East,10.4,-,N/A,,Mostly Cloudy,100,2013-02-10 16:55:00
12:15 PM,75.2,59.0,57,30.27,10.0,East,11.5,-,N/A,,Mostly Cloudy,100,2013-02-10 17:15:00
12:35 PM,77.0,59.0,54,30.26,10.0,ESE,11.5,17.3,N/A,,Mostly Cloudy,110,2013-02-10 17:35:00
12:55 PM,77.0,59.0,54,30.25,10.0,ESE,13.8,18.4,N/A,,Mostly Cloudy,110,2013-02-10 17:55:00
1:15 PM,77.0,59.0,54,30.23,10.0,ESE,12.7,18.4,N/A,,Mostly Cloudy,110,2013-02-10 18:15:00
1:35 PM,77.0,59.0,54,30.22,10.0,East,12.7,19.6,N/A,,Mostly Cloudy,90,2013-02-10 18:35:00
1:55 PM,75.2,59.0,57,30.22,10.0,ESE,10.4,-,N/A,,Overcast,110,2013-02-10 18:55:00
2:15 PM,77.0,59.0,54,30.21,10.0,ESE,12.7,18.4,N/A,,Mostly Cloudy,120,2013-02-10 19:15:00
2:35 PM,75.2,59.0,57,30.21,10.0,ESE,12.7,18.4,N/A,,Mostly Cloudy,110,2013-02-10 19:35:00
2:55 PM,75.2,59.0,57,30.21,10.0,East,12.7,18.4,N/A,,Overcast,90,2013-02-10 19:55:00
3:15 PM,75.2,59.0,57,30.20,10.0,ESE,13.8,18.4,N/A,,Mostly Cloudy,110,2013-02-10 20:15:00
3:35 PM,73.4,59.0,61,30.20,10.0,East,10.4,17.3,N/A,,Overcast,100,2013-02-10 20:35:00
3:55 PM,75.2,59.0,57,30.20,10.0,East,8.1,16.1,N/A,,Overcast,90,2013-02-10 20:55:00
4:15 PM,73.4,59.0,61,30.21,10.0,East,10.4,16.1,N/A,,Overcast,100,2013-02-10 21:15:00
4:35 PM,75.2,59.0,57,30.20,10.0,ENE,10.4,16.1,N/A,,Mostly Cloudy,70,2013-02-10 21:35:00
4:55 PM,73.4,59.0,61,30.20,10.0,ESE,8.1,16.1,N/A,,Mostly Cloudy,110,2013-02-10 21:55:00
5:15 PM,71.6,59.0,64,30.20,10.0,East,8.1,-,N/A,,Mostly Cloudy,100,2013-02-10 22:15:00
5:35 PM,71.6,59.0,64,30.21,10.0,East,8.1,-,N/A,,Mostly Cloudy,100,2013-02-10 22:35:00
5:55 PM,69.8,59.0,68,30.20,10.0,East,6.9,-,N/A,,Scattered Clouds,90,2013-02-10 22:55:00
6:15 PM,69.8,59.0,68,30.21,10.0,East,6.9,-,N/A,,Clear,90,2013-02-10 23:15:00
6:35 PM,68.0,59.0,73,30.22,10.0,East,5.8,-,N/A,,Clear,80,2013-02-10 23:35:00
6:55 PM,68.0,59.0,73,30.22,10.0,East,4.6,-,N/A,,Clear,90,2013-02-10 23:55:00
7:15 PM,66.2,59.0,78,30.22,10.0,East,4.6,-,N/A,,Clear,90,2013-02-11 00:15:00
7:35 PM,64.4,59.0,83,30.22,10.0,East,4.6,-,N/A,,Clear,90,2013-02-11 00:35:00
7:55 PM,64.4,59.0,83,30.23,10.0,East,4.6,-,N/A,,Clear,80,2013-02-11 00:55:00
8:15 PM,64.4,59.0,83,30.23,10.0,East,4.6,-,N/A,,Clear,90,2013-02-11 01:15:00
8:35 PM,64.4,59.0,83,30.23,10.0,East,4.6,-,N/A,,Clear,80,2013-02-11 01:35:00
8:55 PM,64.4,59.0,83,30.23,10.0,East,5.8,-,N/A,,Clear,90,2013-02-11 01:55:00
9:15 PM,64.4,59.0,83,30.24,10.0,East,4.6,-,N/A,,Clear,80,2013-02-11 02:15:00
9:35 PM,62.6,59.0,88,30.24,10.0,East,4.6,-,N/A,,Clear,80,2013-02-11 02:35:00
9:55 PM,62.6,59.0,88,30.23,10.0,East,4.6,-,N/A,,Clear,90,2013-02-11 02:55:00
10:15 PM,62.6,59.0,88,30.23,10.0,East,4.6,-,N/A,,Clear,90,2013-02-11 03:15:00
10:35 PM,62.6,59.0,88,30.23,10.0,East,4.6,-,N/A,,Clear,90,2013-02-11 03:35:00
10:55 PM,62.6,59.0,88,30.22,10.0,East,4.6,-,N/A,,Clear,100,2013-02-11 03:55:00
11:15 PM,62.6,59.0,88,30.22,10.0,ESE,5.8,-,N/A,,Clear,110,2013-02-11 04:15:00
11:35 PM,62.6,59.0,88,30.22,10.0,East,5.8,-,N/A,,Clear,100,2013-02-11 04:35:00
11:55 PM,62.6,59.0,88,30.22,10.0,ESE,5.8,-,N/A,,Clear,110,2013-02-11 04:55:00